[[{"header":{"parameterUnit":"m.s-1","parameterCategory":1,"la1":30.2992,"la2":30.254,"lo1":-89.0895,"lo2":-89.0443,"dy":0.0025,"dx":0.0025,"nx":19,"ny":19,"refTime":"2026-05-08T21:00:00:Z","depth":0,"parameterNumber":2,"parameterNumberName":"U-component_of_WINDS"},"data":[0,0,0,-3.5892,-3.5893,-3.5921,-3.592,-3.5988,-3.5989,0,0,0,0,0,0,0,0,0,0,0,-3.5902,-3.5903,-3.5892,-3.5893,-3.5921,-3.592,-3.5988,-3.5989,0,0,0,0,0,0,0,0,0,0,0,-3.5902,-3.5903,-3.5905,-3.5893,-3.5921,-3.592,-3.5988,-3.5955,0,0,0,0,0,0,0,0,0,0,-3.5923,-3.5951,-3.5903,-3.5905,-3.5893,-3.5921,-3.592,-3.5953,-3.5957,-3.5989,0,-3.6021,0,-3.6006,-3.5995,-3.5996,0,0,0,-3.5879,-3.5948,-3.5938,-3.5905,-3.5894,-3.5921,-3.5904,-3.5955,-3.596,-3.5995,-3.6022,-3.6024,-3.6008,-3.5996,-3.5996,-3.6224,-3.6225,0,0,-3.5878,-3.5918,-3.5935,-3.5942,-3.5939,-3.5903,-3.5905,-3.5958,-3.599,-3.6022,-3.6025,-3.6009,-3.5997,-3.5997,-3.6222,-3.6224,0,0,0,-3.5883,-3.5917,-3.5905,-3.594,-3.5943,-3.5905,-3.5907,-3.5988,-3.5981,-3.6025,-3.6009,-3.5997,-3.5998,-3.622,-3.6223,-3.6347,0,0,0,-3.5881,-3.592,-3.5906,-3.593,-3.5943,-3.5966,-3.5937,-3.5977,-3.5982,-3.6009,-3.5997,-3.5999,-3.6218,-3.6221,-3.6339,-3.6399,0,0,0,-3.5894,-3.5921,-3.5932,-3.5933,-3.5946,-3.5964,-3.5959,-3.5977,-3.5973,-3.5996,-3.6,-3.6217,-3.6221,-3.6333,-3.6388,-3.6472,0,0,0,-3.592,-3.6041,-3.5934,-3.6063,-3.5946,-3.604,-3.5958,-3.6026,-3.6061,-3.5998,-3.6218,-3.6222,-3.633,-3.6381,-3.6465,-3.655,-3.6589,0,0,-3.6095,-3.6064,-3.6136,-3.6042,-3.6165,-3.6033,-3.6174,-3.6168,-3.6133,-3.6196,-3.6201,-3.6342,-3.6387,-3.647,-3.6792,-3.6823,0,0,0,-3.6206,-3.6259,-3.6283,-3.6317,-3.6315,-3.6318,-3.6286,-3.6283,-3.6334,-3.6173,-3.6393,-3.6418,-3.6466,-3.6505,-3.6531,-3.657,-3.6242,-3.6241,-3.6241,-3.6512,-3.6461,-3.6579,-3.6532,-3.6567,-3.6532,-3.6556,-3.6547,-3.6485,-3.6538,-3.6557,-3.6758,-3.6805,-3.6825,-3.6866,-3.6597,-3.6597,-3.6597,-3.6598,-3.6765,-3.6833,-3.6748,-3.6832,-3.6779,-3.6849,-3.6821,-3.6775,-3.6834,-3.6739,-3.6778,-3.6681,-3.6861,-3.6894,-3.6607,-3.6605,-3.6604,-3.6603,-3.6603,-3.6961,-3.6984,-3.6979,-3.7024,-3.7065,-3.7013,-3.7074,-3.7022,-3.6974,-3.7012,-3.7027,-3.7025,-3.7018,-3.7023,-3.7023,-3.7024,-3.7025,-3.7025,-3.7026,-3.7167,-3.7157,-3.7213,-3.7222,-3.7238,-3.7252,-3.7219,-3.7234,-3.7236,-3.7194,-3.7194,-3.7129,-3.6887,-3.6828,-3.7036,-3.7034,-3.7033,-3.7032,-3.7031,-3.7444,-3.7373,-3.7461,-3.7477,-3.7483,-3.7528,-3.7461,-3.7496,-3.75,-3.7532,-3.7458,-3.7287,-3.7251,-3.7229,-3.7181,-3.7467,-3.7467,-3.7467,-3.7467,-3.7611,-3.7587,-3.7666,-3.7695,-3.7718,-3.7667,-3.7769,-3.7745,-3.7709,-3.7709,-3.766,-3.759,-3.757,-3.7546,-3.7518,-3.7472,-3.7826,-3.7826,-3.7826,-3.778,-3.7756,-3.7853,-3.7816,-3.7817,-3.782,-3.7915,-3.7953,-3.7897,-3.784,-3.7709,-3.7693,-3.758,-3.7545,-3.7486,-3.7443,-3.7357,0,0]},{"header":{"parameterUnit":"m.s-1","parameterCategory":1,"la1":30.2992,"la2":30.254,"lo1":-89.0895,"lo2":-89.0443,"dy":0.0025,"dx":0.0025,"nx":19,"ny":19,"refTime":"2026-05-08T21:00:00:Z","depth":0,"parameterNumber":3,"parameterNumberName":"V-component_of_WINDS"},"data":[0,0,0,-1.4118,-1.4118,-1.4096,-1.4096,-1.4078,-1.4078,0,0,0,0,0,0,0,0,0,0,0,-1.4131,-1.4131,-1.4118,-1.4118,-1.4096,-1.4096,-1.4078,-1.4078,0,0,0,0,0,0,0,0,0,0,0,-1.4131,-1.4131,-1.4131,-1.4118,-1.4096,-1.4096,-1.4078,-1.4091,0,0,0,0,0,0,0,0,0,0,-1.411,-1.4128,-1.4131,-1.4131,-1.4117,-1.4096,-1.4096,-1.4091,-1.409,-1.4092,0,-1.4096,0,-1.4087,-1.4078,-1.4078,0,0,0,-1.4113,-1.4129,-1.4118,-1.4131,-1.4117,-1.4096,-1.4105,-1.4091,-1.4089,-1.4091,-1.4096,-1.4095,-1.4087,-1.4078,-1.4078,-1.4106,-1.4106,0,0,-1.4114,-1.413,-1.4119,-1.4117,-1.4122,-1.4105,-1.4104,-1.409,-1.4096,-1.4096,-1.4094,-1.4086,-1.4078,-1.4077,-1.4105,-1.4106,0,0,0,-1.4121,-1.4131,-1.412,-1.4118,-1.4114,-1.4105,-1.4103,-1.4097,-1.4092,-1.4094,-1.4086,-1.4077,-1.4077,-1.4105,-1.4105,-1.4138,0,0,0,-1.4121,-1.4135,-1.4121,-1.413,-1.4114,-1.4105,-1.4111,-1.4093,-1.4091,-1.4086,-1.4077,-1.4077,-1.4104,-1.4105,-1.4137,-1.4151,0,0,0,-1.413,-1.4136,-1.4135,-1.4131,-1.4123,-1.4105,-1.4099,-1.4092,-1.4086,-1.4078,-1.4077,-1.4104,-1.4105,-1.4135,-1.4149,-1.4163,0,0,0,-1.4144,-1.4165,-1.4136,-1.4157,-1.4123,-1.4126,-1.4099,-1.41,-1.4097,-1.4077,-1.4104,-1.4105,-1.4135,-1.4147,-1.4161,-1.4177,-1.4186,0,0,-1.418,-1.417,-1.4181,-1.4154,-1.4166,-1.4128,-1.4144,-1.4126,-1.411,-1.4108,-1.4108,-1.4137,-1.4149,-1.4163,-1.4228,-1.4235,0,0,0,-1.4198,-1.4206,-1.4206,-1.4204,-1.419,-1.4179,-1.4156,-1.4149,-1.4146,-1.4113,-1.4146,-1.4152,-1.416,-1.4167,-1.4172,-1.4177,-1.4109,-1.4109,-1.4109,-1.4273,-1.4251,-1.4268,-1.4243,-1.4241,-1.4217,-1.4213,-1.4199,-1.4178,-1.4186,-1.4185,-1.4228,-1.4237,-1.4241,-1.4246,-1.4192,-1.4193,-1.4193,-1.4193,-1.4324,-1.4331,-1.4302,-1.4308,-1.4284,-1.4288,-1.4265,-1.425,-1.425,-1.4227,-1.4232,-1.4209,-1.4249,-1.4252,-1.4195,-1.4195,-1.4194,-1.4194,-1.4194,-1.437,-1.437,-1.4361,-1.4354,-1.4351,-1.4325,-1.4326,-1.4305,-1.4285,-1.429,-1.4286,-1.4285,-1.4282,-1.429,-1.429,-1.429,-1.429,-1.429,-1.429,-1.4422,-1.441,-1.4414,-1.44,-1.4395,-1.4386,-1.436,-1.4354,-1.4342,-1.4327,-1.4327,-1.4304,-1.4257,-1.4245,-1.4292,-1.4292,-1.4292,-1.4292,-1.4291,-1.4481,-1.4464,-1.4469,-1.4464,-1.4445,-1.4443,-1.4416,-1.4405,-1.4397,-1.4398,-1.4374,-1.4343,-1.4331,-1.4327,-1.4317,-1.4379,-1.4379,-1.4379,-1.4379,-1.452,-1.4511,-1.4511,-1.4504,-1.4495,-1.447,-1.4476,-1.4456,-1.4433,-1.4426,-1.4414,-1.4399,-1.4395,-1.4386,-1.4379,-1.437,-1.4445,-1.4445,-1.4445,-1.4554,-1.4544,-1.4553,-1.453,-1.4514,-1.45,-1.4504,-1.4496,-1.4466,-1.4447,-1.442,-1.4417,-1.4393,-1.4386,-1.4367,-1.4358,-1.434,0,0]}]]